[[{"header":{"parameterUnit":"m.s-1","parameterCategory":2,"la1":30.2992,"la2":30.254,"lo1":-89.0895,"lo2":-89.0443,"dy":0.0025,"dx":0.0025,"nx":19,"ny":19,"refTime":"2026-03-21T03:00:00:Z","depth":"0","parameterNumber":2,"parameterNumberName":"U-component_of_CURRENTS"},"data":[0,0,0,0.0433,0.0436,0.0594,0.0595,0.0724,0.0725,0,0,0,0,0,0,0,0,0,0,0,0.0381,0.0382,0.0433,0.0436,0.0594,0.0595,0.0724,0.0725,0,0,0,0,0,0,0,0,0,0,0,0.0381,0.0381,0.0382,0.0436,0.0594,0.0595,0.0724,0.063,0,0,0,0,0,0,0,0,0,0,0.0489,0.0446,0.0381,0.0382,0.0437,0.0594,0.0595,0.0627,0.0636,0.0622,0,0.0632,0,0.0665,0.0729,0.0729,0,0,0,0.0466,0.0439,0.0468,0.0382,0.0438,0.0593,0.0531,0.0633,0.0643,0.0634,0.0634,0.064,0.0667,0.073,0.073,0.0975,0.0977,0,0,0.0457,0.0427,0.0461,0.0474,0.0458,0.0526,0.0536,0.064,0.0647,0.0635,0.0643,0.0669,0.073,0.073,0.0973,0.0975,0,0,0,0.0412,0.0421,0.0451,0.0468,0.0493,0.053,0.0541,0.0644,0.0649,0.0645,0.0671,0.073,0.0731,0.097,0.0973,0.1088,0,0,0,0.0408,0.0392,0.0446,0.0432,0.0491,0.0581,0.0542,0.0643,0.0655,0.067,0.073,0.0732,0.0968,0.0972,0.108,0.1116,0,0,0,0.0378,0.0389,0.0399,0.043,0.0483,0.058,0.0596,0.0647,0.0669,0.0729,0.0732,0.0966,0.0971,0.1072,0.1104,0.1239,0,0,0,0.0355,0.04,0.0398,0.046,0.0481,0.064,0.0596,0.0719,0.0784,0.0731,0.0968,0.0973,0.107,0.1097,0.1231,0.1245,0.1283,0,0,0.0407,0.0405,0.0445,0.0447,0.0606,0.0621,0.0821,0.0871,0.0861,0.0926,0.0934,0.1082,0.1103,0.1238,0.1549,0.1577,0,0,0,0.046,0.0493,0.0545,0.062,0.0717,0.0861,0.0925,0.0985,0.1101,0.0916,0.1158,0.1169,0.1249,0.1243,0.1268,0.1294,0.0998,0.0997,0.0996,0.0505,0.0559,0.0679,0.0778,0.0876,0.1047,0.1174,0.1268,0.1226,0.1326,0.1319,0.1574,0.1574,0.1591,0.1621,0.1392,0.1392,0.1392,0.1393,0.0615,0.0694,0.0777,0.0913,0.1049,0.1202,0.14,0.1439,0.1625,0.1534,0.1607,0.1434,0.1624,0.1646,0.1401,0.14,0.1399,0.1398,0.1397,0.068,0.0729,0.0795,0.0954,0.1131,0.1289,0.1489,0.1625,0.1722,0.1812,0.1819,0.1816,0.1784,0.1857,0.1858,0.1859,0.186,0.186,0.1861,0.0702,0.0777,0.0875,0.1008,0.1102,0.1273,0.1546,0.1716,0.1932,0.1964,0.1965,0.1908,0.1716,0.1638,0.1873,0.1871,0.1869,0.1868,0.1867,0.0812,0.0791,0.0916,0.1001,0.1176,0.1304,0.1535,0.188,0.2066,0.2187,0.2189,0.2063,0.2028,0.2007,0.1939,0.2238,0.2238,0.2238,0.2238,0.0852,0.0862,0.0983,0.1084,0.1206,0.1339,0.158,0.187,0.2204,0.2316,0.2361,0.2253,0.2236,0.2206,0.2181,0.2113,0.245,0.2451,0.2451,0.0933,0.0939,0.1041,0.1106,0.1225,0.1366,0.1568,0.1774,0.2203,0.2461,0.2411,0.2402,0.2237,0.2208,0.2142,0.2105,0.1985,0,0]},{"header":{"parameterUnit":"m.s-1","parameterCategory":2,"la1":30.2992,"la2":30.254,"lo1":-89.0895,"lo2":-89.0443,"dy":0.0025,"dx":0.0025,"nx":19,"ny":19,"refTime":"2026-03-21T03:00:00:Z","depth":"0","parameterNumber":3,"parameterNumberName":"V-component_of_CURRENTS"},"data":[0,0,0,0.0375,0.0376,0.0461,0.0462,0.0597,0.0598,0,0,0,0,0,0,0,0,0,0,0,0.0327,0.0327,0.0374,0.0376,0.0461,0.0462,0.0596,0.0598,0,0,0,0,0,0,0,0,0,0,0,0.0327,0.0327,0.0327,0.0377,0.0461,0.0462,0.0596,0.0527,0,0,0,0,0,0,0,0,0,0,0.0442,0.0414,0.0327,0.0327,0.0377,0.0461,0.0462,0.0523,0.0531,0.0564,0,0.0559,0,0.0588,0.0607,0.0607,0,0,0,0.0382,0.0407,0.041,0.0327,0.0378,0.0461,0.0425,0.0528,0.0537,0.0574,0.0561,0.0567,0.059,0.0608,0.0609,0.0794,0.0795,0,0,0.0378,0.037,0.0403,0.0415,0.0378,0.0422,0.0427,0.0533,0.0546,0.0562,0.057,0.0593,0.0609,0.061,0.0793,0.0794,0,0,0,0.036,0.0366,0.0367,0.0409,0.0426,0.0424,0.043,0.0541,0.0534,0.0572,0.0594,0.061,0.0611,0.0792,0.0794,0.0885,0,0,0,0.0358,0.0355,0.0364,0.0364,0.0423,0.0488,0.0436,0.0526,0.054,0.0593,0.061,0.0613,0.0791,0.0793,0.088,0.0982,0,0,0,0.0327,0.0354,0.0351,0.0362,0.0396,0.0486,0.0488,0.053,0.0554,0.0608,0.0613,0.079,0.0793,0.0876,0.0972,0.1045,0,0,0,0.0334,0.0381,0.0351,0.0429,0.0395,0.0516,0.0487,0.0582,0.0635,0.061,0.0791,0.0794,0.0875,0.0967,0.104,0.1085,0.1115,0,0,0.0408,0.039,0.0442,0.0418,0.0559,0.0506,0.0667,0.0706,0.0681,0.0756,0.0761,0.0882,0.0972,0.1044,0.1224,0.1251,0,0,0,0.0479,0.0515,0.0554,0.0621,0.0673,0.075,0.0773,0.0783,0.0837,0.0721,0.0906,0.0962,0.1003,0.1018,0.104,0.0845,0.0805,0.0805,0.0804,0.0583,0.0621,0.0745,0.0801,0.0858,0.0933,0.099,0.1004,0.0952,0.0981,0.105,0.1199,0.1216,0.1233,0.1031,0.1035,0.1035,0.1036,0.1036,0.0744,0.0832,0.0876,0.1006,0.1059,0.1161,0.1215,0.119,0.1268,0.1176,0.1209,0.1134,0.1262,0.1038,0.1042,0.1041,0.104,0.104,0.1039,0.0843,0.0894,0.0957,0.1104,0.1233,0.1298,0.1447,0.1466,0.1398,0.1441,0.1433,0.1431,0.1222,0.1437,0.1438,0.1439,0.1439,0.144,0.144,0.091,0.0978,0.1082,0.121,0.1296,0.1447,0.1597,0.1681,0.1702,0.1599,0.1598,0.1269,0.1323,0.1293,0.1452,0.145,0.1449,0.1448,0.1447,0.105,0.1027,0.1181,0.1272,0.1461,0.1645,0.1757,0.193,0.1956,0.1967,0.152,0.1662,0.1648,0.1629,0.1607,0.184,0.184,0.184,0.184,0.1104,0.1118,0.1283,0.1415,0.1585,0.1745,0.1981,0.2066,0.1876,0.1674,0.1569,0.1431,0.1424,0.1386,0.1373,0.1341,0.1501,0.15,0.1499,0.1186,0.1225,0.1356,0.147,0.1649,0.1862,0.2108,0.2175,0.1757,0.1459,0.1292,0.1307,0.107,0.1075,0.0981,0.0977,0.0913,0,0]}],[{"header":{"parameterUnit":"m.s-1","parameterCategory":2,"la1":30.2992,"la2":30.254,"lo1":-89.0895,"lo2":-89.0443,"dy":0.0025,"dx":0.0025,"nx":19,"ny":19,"refTime":"2026-03-21T03:00:00:Z","depth":"2","parameterNumber":2,"parameterNumberName":"U-component_of_CURRENTS"},"data":[0,0,0,-0.0809,-0.081,-0.087,-0.087,-0.0782,-0.078,0,0,0,0,0,0,0,0,0,0,0,-0.0802,-0.0802,-0.0809,-0.081,-0.087,-0.087,-0.0782,-0.078,0,0,0,0,0,0,0,0,0,0,0,-0.0801,-0.0802,-0.0802,-0.081,-0.0869,-0.087,-0.0782,-0.0783,0,0,0,0,0,0,0,0,0,0,-0.0747,-0.0768,-0.0802,-0.0802,-0.081,-0.0869,-0.087,-0.0785,-0.0782,-0.0702,0,-0.0714,0,-0.0726,-0.0769,-0.0768,0,0,0,-0.0828,-0.0771,-0.0768,-0.0802,-0.0811,-0.0869,-0.0848,-0.0785,-0.0782,-0.0698,-0.0713,-0.0711,-0.0725,-0.0768,-0.0767,-0.0504,-0.0503,0,0,-0.0825,-0.0825,-0.0771,-0.0767,-0.0825,-0.0846,-0.0849,-0.0785,-0.0787,-0.0713,-0.0709,-0.0723,-0.0767,-0.0765,-0.0506,-0.0504,0,0,0,-0.0803,-0.0822,-0.0826,-0.077,-0.0783,-0.0847,-0.0851,-0.0792,-0.0788,-0.0709,-0.0722,-0.0766,-0.0764,-0.0508,-0.0505,-0.0568,0,0,0,-0.0802,-0.0808,-0.0825,-0.0827,-0.0786,-0.0812,-0.0859,-0.0794,-0.0787,-0.0723,-0.0766,-0.0762,-0.0509,-0.0506,-0.0571,-0.0478,0,0,0,-0.0799,-0.0808,-0.0812,-0.0827,-0.0842,-0.0814,-0.081,-0.0794,-0.0792,-0.0768,-0.0762,-0.0511,-0.0507,-0.0573,-0.0484,-0.0451,0,0,0,-0.0801,-0.0793,-0.0812,-0.0805,-0.0841,-0.0855,-0.0812,-0.0835,-0.0827,-0.0765,-0.0509,-0.0505,-0.0573,-0.0487,-0.0454,-0.0429,-0.0411,0,0,-0.0784,-0.0792,-0.0784,-0.0801,-0.0789,-0.0848,-0.0846,-0.0826,-0.0717,-0.0526,-0.0522,-0.057,-0.0484,-0.0452,-0.0207,-0.0197,0,0,0,-0.0772,-0.0768,-0.0767,-0.0771,-0.079,-0.0779,-0.0819,-0.0777,-0.0621,-0.0687,-0.0473,-0.0411,-0.0394,-0.0382,-0.0371,-0.0487,-0.0488,-0.0488,-0.0488,-0.0761,-0.0755,-0.0743,-0.0735,-0.0737,-0.076,-0.0716,-0.0627,-0.0621,-0.0517,-0.04,-0.0305,-0.0293,-0.0285,-0.0385,-0.0385,-0.0385,-0.0385,-0.0385,-0.0725,-0.0711,-0.0712,-0.07,-0.0686,-0.0695,-0.0548,-0.0528,-0.0348,-0.0336,-0.0322,-0.0363,-0.0278,-0.0388,-0.0388,-0.0387,-0.0387,-0.0387,-0.0387,-0.0715,-0.0702,-0.0708,-0.0681,-0.0648,-0.06,-0.0487,-0.0405,-0.0258,-0.0224,-0.0203,-0.0202,-0.0346,-0.0255,-0.0254,-0.0253,-0.0253,-0.0253,-0.0252,-0.0694,-0.0689,-0.0666,-0.0647,-0.0604,-0.0537,-0.0424,-0.0355,-0.0223,-0.0135,-0.0137,-0.0258,-0.0262,-0.033,-0.0244,-0.0245,-0.0246,-0.0247,-0.0248,-0.0651,-0.0665,-0.0608,-0.0569,-0.0479,-0.0419,-0.0338,-0.0239,-0.017,-0.008,-0.0103,-0.0109,-0.0059,-0.0067,-0.0124,0.0011,0.0011,0.0011,0.0011,-0.0629,-0.0633,-0.0551,-0.0457,-0.038,-0.0329,-0.0158,-0.0043,0.0028,0.0101,0.0097,0.0025,0.0012,0.0063,0.0053,-0.0004,0.0163,0.0163,0.0163,-0.06,-0.0583,-0.0532,-0.0469,-0.0338,-0.0271,-0.0092,0.0207,0.0297,0.0169,0.0123,0.0021,-0.0102,-0.0115,-0.0052,-0.0062,-0.016,0,0]},{"header":{"parameterUnit":"m.s-1","parameterCategory":2,"la1":30.2992,"la2":30.254,"lo1":-89.0895,"lo2":-89.0443,"dy":0.0025,"dx":0.0025,"nx":19,"ny":19,"refTime":"2026-03-21T03:00:00:Z","depth":"2","parameterNumber":3,"parameterNumberName":"V-component_of_CURRENTS"},"data":[0,0,0,-0.0707,-0.0705,-0.0591,-0.059,-0.0293,-0.029,0,0,0,0,0,0,0,0,0,0,0,-0.0736,-0.0736,-0.0707,-0.0705,-0.0591,-0.059,-0.0293,-0.029,0,0,0,0,0,0,0,0,0,0,0,-0.0736,-0.0736,-0.0735,-0.0705,-0.0591,-0.059,-0.0294,-0.0412,0,0,0,0,0,0,0,0,0,0,-0.0539,-0.06,-0.0736,-0.0735,-0.0704,-0.0591,-0.059,-0.0419,-0.0404,-0.031,0,-0.0303,0,-0.03,-0.0269,-0.0268,0,0,0,-0.068,-0.0613,-0.0584,-0.0735,-0.0704,-0.0591,-0.0635,-0.0412,-0.0395,-0.029,-0.0299,-0.0289,-0.0295,-0.0267,-0.0266,-0.0067,-0.0067,0,0,-0.0686,-0.0703,-0.0596,-0.0574,-0.0683,-0.0639,-0.0632,-0.0403,-0.0384,-0.0298,-0.0283,-0.029,-0.0265,-0.0263,-0.0067,-0.0067,0,0,0,-0.0721,-0.0707,-0.0687,-0.0585,-0.0582,-0.0636,-0.0628,-0.0394,-0.0389,-0.028,-0.0287,-0.0263,-0.0259,-0.0066,-0.0067,-0.0149,0,0,0,-0.0724,-0.073,-0.069,-0.0697,-0.0588,-0.0509,-0.0624,-0.0404,-0.038,-0.0288,-0.0263,-0.0256,-0.0066,-0.0066,-0.0147,-0.0125,0,0,0,-0.074,-0.0731,-0.0723,-0.0699,-0.0663,-0.0514,-0.0495,-0.04,-0.0383,-0.0268,-0.0255,-0.0066,-0.0066,-0.0144,-0.0123,-0.0089,0,0,0,-0.0753,-0.0742,-0.0723,-0.071,-0.0664,-0.062,-0.0496,-0.0417,-0.0328,-0.0262,-0.0066,-0.0067,-0.0144,-0.0121,-0.0089,-0.0207,-0.0219,0,0,-0.075,-0.0742,-0.0737,-0.0718,-0.07,-0.0633,-0.0589,-0.0409,-0.0299,-0.0125,-0.0121,-0.0148,-0.0123,-0.0089,-0.023,-0.0242,0,0,0,-0.0744,-0.0738,-0.0732,-0.0713,-0.068,-0.0618,-0.05,-0.0436,-0.0274,-0.0253,-0.0132,-0.0112,-0.0089,-0.016,-0.0169,-0.0069,-0.0068,-0.0068,-0.0068,-0.075,-0.0741,-0.073,-0.0707,-0.0667,-0.0595,-0.0529,-0.0406,-0.0318,-0.0267,-0.0172,-0.0183,-0.0264,-0.0271,-0.0191,-0.0192,-0.0192,-0.0192,-0.0192,-0.0753,-0.0743,-0.0716,-0.069,-0.0639,-0.0577,-0.0459,-0.0404,-0.0283,-0.0236,-0.0211,-0.0233,-0.0286,-0.0199,-0.0197,-0.0197,-0.0196,-0.0195,-0.0195,-0.0766,-0.0755,-0.073,-0.0675,-0.0591,-0.0503,-0.0416,-0.0356,-0.0268,-0.0264,-0.0271,-0.0272,-0.0193,-0.0235,-0.0235,-0.0235,-0.0235,-0.0234,-0.0234,-0.0774,-0.0754,-0.0724,-0.0644,-0.0555,-0.0451,-0.0367,-0.0354,-0.0341,-0.0315,-0.0316,-0.0195,-0.0194,-0.0192,-0.0231,-0.0232,-0.0232,-0.0232,-0.0233,-0.0787,-0.0761,-0.0716,-0.064,-0.0483,-0.0423,-0.035,-0.0416,-0.0398,-0.0426,-0.0349,-0.0348,-0.0306,-0.03,-0.0299,-0.0363,-0.0363,-0.0363,-0.0363,-0.0785,-0.0779,-0.0705,-0.0595,-0.0494,-0.0396,-0.0399,-0.0424,-0.0458,-0.0441,-0.0437,-0.0495,-0.049,-0.0458,-0.0449,-0.0449,-0.0552,-0.0552,-0.0552,-0.0789,-0.0754,-0.0714,-0.0621,-0.0477,-0.0436,-0.0441,-0.0345,-0.0409,-0.0551,-0.0383,-0.0392,-0.0472,-0.0465,-0.0409,-0.0397,-0.0395,0,0]}],[{"header":{"parameterUnit":"m.s-1","parameterCategory":2,"la1":30.2992,"la2":30.254,"lo1":-89.0895,"lo2":-89.0443,"dy":0.0025,"dx":0.0025,"nx":19,"ny":19,"refTime":"2026-03-21T03:00:00:Z","depth":"4","parameterNumber":2,"parameterNumberName":"U-component_of_CURRENTS"},"data":[0,0,0,-0.035,-0.035,-0.0371,-0.0371,-0.0463,-0.0464,0,0,0,0,0,0,0,0,0,0,0,-0.035,-0.035,-0.035,-0.035,-0.0371,-0.0371,-0.0463,-0.0464,0,0,0,0,0,0,0,0,0,0,0,-0.035,-0.035,-0.035,-0.035,-0.0371,-0.0371,-0.0463,-0.0433,0,0,0,0,0,0,0,0,0,0,-0.0406,-0.0391,-0.035,-0.035,-0.035,-0.0371,-0.0371,-0.0431,-0.0435,-0.0469,0,-0.047,0,-0.0464,-0.0471,-0.0471,0,0,0,-0.036,-0.0388,-0.0392,-0.035,-0.035,-0.0371,-0.0365,-0.0433,-0.0438,-0.0475,-0.0471,-0.0474,-0.0465,-0.0472,-0.0472,-0.0541,-0.0541,0,0,-0.0359,-0.0358,-0.0389,-0.0395,-0.0354,-0.0364,-0.0365,-0.0435,-0.0442,-0.0471,-0.0476,-0.0467,-0.0472,-0.0473,-0.0541,-0.0541,0,0,0,-0.0349,-0.0357,-0.0359,-0.0392,-0.0387,-0.0364,-0.0366,-0.0439,-0.0439,-0.0476,-0.0468,-0.0473,-0.0474,-0.0541,-0.0541,-0.0481,0,0,0,-0.0349,-0.0351,-0.0358,-0.0359,-0.0385,-0.0403,-0.0368,-0.0434,-0.0441,-0.0467,-0.0473,-0.0475,-0.0541,-0.0541,-0.0483,-0.0452,0,0,0,-0.0349,-0.0351,-0.0352,-0.0359,-0.0362,-0.0402,-0.0406,-0.0435,-0.0436,-0.0471,-0.0475,-0.0541,-0.0541,-0.0484,-0.0455,-0.0438,0,0,0,-0.035,-0.0349,-0.0352,-0.0352,-0.0361,-0.0366,-0.0405,-0.0423,-0.0449,-0.0473,-0.0541,-0.0541,-0.0485,-0.0457,-0.044,-0.0387,0,0,0,-0.0348,-0.0349,-0.0348,-0.0351,-0.0341,-0.0364,-0.0366,-0.042,-0.0463,-0.0525,-0.0526,-0.0482,-0.0456,-0.0438,-0.0389,0,0,0,0,-0.0346,-0.0344,-0.0342,-0.0338,-0.0343,-0.0345,-0.0386,-0.0406,-0.0453,-0.0477,-0.05,-0.0485,-0.0476,-0.0451,-0.0541,-0.0541,-0.0541,-0.0541,-0.0541,-0.0342,-0.0338,-0.0331,-0.0326,-0.0327,-0.034,-0.0349,-0.039,-0.0433,-0.0443,-0.0449,-0.0412,-0.0385,-0.0467,-0.0467,-0.0467,-0.0467,-0.0466,-0.0466,-0.0329,-0.0322,-0.0318,-0.0309,-0.0308,-0.0314,-0.033,-0.0349,-0.0369,-0.0408,-0.0402,-0.0406,-0.0461,-0.0462,-0.0463,-0.0463,-0.0464,-0.0464,-0.0464,-0.0321,-0.0316,-0.0315,-0.0302,-0.0297,-0.0299,-0.0283,-0.0299,-0.0323,-0.0312,-0.0306,-0.0376,-0.0367,-0.0315,-0.0315,-0.0315,-0.0314,-0.0314,-0.0314,-0.0312,-0.0309,-0.0299,-0.0294,-0.0291,-0.0275,-0.0255,-0.024,-0.0249,-0.0233,-0.0298,-0.0361,-0.0366,-0.036,-0.0311,-0.0311,-0.0312,-0.0312,-0.0312,-0.0291,-0.0305,-0.028,-0.0277,-0.0261,-0.0249,-0.0235,-0.0164,-0.0142,-0.0122,-0.0198,-0.0205,-0.0223,-0.0232,-0.0221,-0.0129,-0.0128,-0.0127,0,-0.0288,-0.0289,-0.0258,-0.0241,-0.0217,-0.0227,-0.0154,-0.0122,-0.0115,-0.0116,-0.0172,-0.0262,-0.0266,-0.0293,-0.0299,-0.029,0,0,0,-0.0277,-0.0268,-0.0239,-0.0223,-0.0198,-0.0152,-0.0128,-0.0091,-0.0131,-0.0055,-0.0105,-0.0111,-0.023,-0.0301,-0.0345,-0.0351,-0.0343,0,0]},{"header":{"parameterUnit":"m.s-1","parameterCategory":2,"la1":30.2992,"la2":30.254,"lo1":-89.0895,"lo2":-89.0443,"dy":0.0025,"dx":0.0025,"nx":19,"ny":19,"refTime":"2026-03-21T03:00:00:Z","depth":"4","parameterNumber":3,"parameterNumberName":"V-component_of_CURRENTS"},"data":[0,0,0,-0.0494,-0.0496,-0.057,-0.057,-0.0647,-0.0647,0,0,0,0,0,0,0,0,0,0,0,-0.0473,-0.0474,-0.0494,-0.0496,-0.057,-0.057,-0.0647,-0.0647,0,0,0,0,0,0,0,0,0,0,0,-0.0473,-0.0474,-0.0474,-0.0496,-0.057,-0.057,-0.0647,-0.0597,0,0,0,0,0,0,0,0,0,0,-0.0528,-0.0512,-0.0474,-0.0474,-0.0496,-0.057,-0.057,-0.0595,-0.06,-0.0605,0,-0.0617,0,-0.0628,-0.0651,-0.0651,0,0,0,-0.0504,-0.0508,-0.0522,-0.0474,-0.0497,-0.057,-0.0539,-0.0598,-0.0604,-0.0612,-0.0618,-0.0621,-0.0629,-0.0652,-0.0652,-0.0739,-0.074,0,0,-0.05,-0.0493,-0.0518,-0.0526,-0.0516,-0.0536,-0.0541,-0.0602,-0.0611,-0.0619,-0.0623,-0.0631,-0.0652,-0.0653,-0.0739,-0.0739,0,0,0,-0.0483,-0.049,-0.0504,-0.0522,-0.0534,-0.0538,-0.0544,-0.0609,-0.0612,-0.0624,-0.0632,-0.0652,-0.0653,-0.0738,-0.0739,-0.0738,0,0,0,-0.0481,-0.048,-0.0502,-0.0499,-0.0533,-0.0576,-0.0549,-0.0608,-0.0615,-0.0631,-0.0652,-0.0654,-0.0737,-0.0738,-0.0737,-0.0737,0,0,0,-0.047,-0.0479,-0.0486,-0.0499,-0.0526,-0.0575,-0.0582,-0.061,-0.0619,-0.0652,-0.0654,-0.0737,-0.0738,-0.0736,-0.0736,-0.0712,0,0,0,-0.0462,-0.0487,-0.0486,-0.0522,-0.0525,-0.0582,-0.0582,-0.0633,-0.0665,-0.0653,-0.0738,-0.0739,-0.0735,-0.0735,-0.0712,-0.0651,0,0,0,-0.0489,-0.049,-0.0512,-0.0513,-0.0564,-0.0572,-0.063,-0.0669,-0.0684,-0.0716,-0.0718,-0.0737,-0.0736,-0.0712,-0.0725,0,0,0,0,-0.0518,-0.0532,-0.055,-0.0579,-0.0612,-0.064,-0.0677,-0.069,-0.0732,-0.0706,-0.0763,-0.0762,-0.0746,-0.0712,-0.0745,-0.0745,-0.0744,-0.0744,-0.0744,-0.0549,-0.0564,-0.0601,-0.0625,-0.0655,-0.0696,-0.0722,-0.0748,-0.0757,-0.0779,-0.078,-0.0789,-0.0757,-0.0802,-0.0802,-0.0802,-0.0802,-0.0802,-0.0802,-0.0586,-0.0607,-0.0624,-0.0665,-0.0688,-0.073,-0.0762,-0.0774,-0.0796,-0.0806,-0.079,-0.0739,-0.0802,-0.0802,-0.0802,-0.0802,-0.0802,-0.0802,-0.0802,-0.0603,-0.0612,-0.0639,-0.068,-0.0715,-0.0746,-0.0759,-0.0783,-0.0798,-0.0801,-0.0742,-0.0785,-0.0761,-0.0781,-0.0781,-0.0781,-0.0781,-0.0781,-0.0781,-0.0606,-0.0628,-0.0658,-0.0695,-0.0718,-0.0736,-0.0756,-0.0756,-0.0765,-0.0741,-0.0792,-0.0782,-0.0782,-0.076,-0.0779,-0.078,-0.078,-0.078,-0.078,-0.0617,-0.0628,-0.0661,-0.0689,-0.0724,-0.0724,-0.074,-0.0701,-0.0688,-0.0666,-0.07,-0.0704,-0.0692,-0.0694,-0.0668,-0.0661,-0.066,-0.0659,0,-0.0613,-0.0625,-0.0655,-0.0683,-0.0699,-0.0713,-0.0676,-0.0662,-0.0653,-0.0644,-0.0704,-0.0745,-0.0747,-0.0737,-0.0738,-0.071,0,0,0,-0.0607,-0.0619,-0.0629,-0.0664,-0.0683,-0.0657,-0.0658,-0.0634,-0.0656,-0.0614,-0.0641,-0.0645,-0.0737,-0.0775,-0.0766,-0.0767,-0.073,0,0]}]]